User: anonymous   Login
Location: Unspecified
(0.0000°N, 0.0000°E)
Time: 16:33:09
(UTC+00:00)
Language:

CASSIOPE - Orbit

View from above orbital plane
View from above orbital plane
View from above satellite
View from above satellite

Ground track
Ground track

The orbit data is extracted from the following two-line orbital elements,

1 39265U 13055A   17204.88626624 +.00005000 +00000-0 +14471-3 0  9990
2 39265 080.9718 337.0907 0687591 146.7416 217.9013 14.23121807196732
Epoch (UTC): 23 July 2017 21:16:13
Eccentricity: 0.0687591
inclination: 80.9718°
perigee height: 320 km
apogee height: 1309 km
right ascension of ascending node: 337.0907°
argument of perigee: 146.7416°
revolutions per day: 14.23121807
mean anomaly at epoch: 217.9013°
orbit number at epoch: 19673

The dashed part of the orbit path shows where the satellite is in the earth's shadow,  

DLR